Content
SEND FEEDBACK

Daily
Averages
Monthly
Summary
United States of America

ASATDAS, GUAM


Home > North America > United States > Guam
Elevation: 612 feet     Latitude: 13 35N     Longitude: 144 56E

WEATHER
 
SELECT A DAY
Number of Records: 209,106;   Date Range: 1/1/95 - 8/12/14
 
SHARE

PRINT THIS DATA

[ ← Previous Day ]
WEATHER ALMANAC - OCTOBER 11, 2013
[ Next Day → ]
[ °C ]   °F
Weather ElementAverageHighLow
Temperature77.1 °F80.1 °F (11:54 pm)73.4 °F (7:06 pm)
Dewpoint75.1 °F77 °F (7:31 am)71.6 °F (7:10 pm)
Humidity93.3 %100 % (10:18 am)87 % (11:54 pm)
Barometer29.62 in29.70 in (8:40 pm)29.50 in (1:54 am)
Wind Speed13.6 mph20.7 mph (6:54 pm)
Wind Gust34.5 mph (10:01 am)
Weather ElementAverage
Visibility6.7 mi
Wind DirectionS (180 °)

Weather ElementTotal
Precipitation5.04 in
Cooling Degree Days11.8 (Base 65)
Growing Degree Days26.8 (Base 50)
Averaged from 74 records on October 11, 2013
WEATHER CONDITIONS BREAKOUT
WIND DIRECTION BREAKOUT
WEATHER BY HOUR - OCTOBER 11, 2013
[ °C ]   °F
Local TimeTemperatureDewpointHumidityBarometerVisibilityWind DirectionWind SpeedGust SpeedPrecipitationEventsConditions
1:37 AM77.0 °F75.2 °F94 %29.52 in5.0 miSouth (180°)8.1 mph0.05 inRainLight Rain
1:54 AM77.0 °F75.9 °F96 %29.50 in7.0 miSouth (170°)9.2 mph19.6 mph0.06 inRainLight Rain
2:14 AM77.0 °F75.2 °F94 %29.52 in5.0 miSouth (180°)10.4 mph19.6 mph0.00 inRainRain
2:22 AM77.0 °F75.2 °F94 %29.52 in8.0 miSSE (160°)10.4 mph18.4 mph0.00 inOvercast
2:54 AM78.1 °F75.9 °F93 %29.50 in5.0 miSouth (170°)13.8 mph19.6 mph0.01 inRainLight Rain
3:54 AM77.0 °F75.9 °F96 %29.50 in9.0 miSouth (180°)13.8 mph21.9 mph0.02 inOvercast
4:05 AM77.0 °F75.2 °F94 %29.53 in8.0 miSouth (180°)12.7 mph0.00 inRainLight Rain
4:17 AM78.8 °F75.2 °F89 %29.53 in6.0 miSouth (180°)13.8 mph23.0 mph0.00 inRainLight Rain
4:44 AM77.0 °F75.2 °F94 %29.54 in10.0 miSouth (190°)17.3 mph27.6 mph0.02 inOvercast
4:54 AM75.9 °F73.9 °F94 %29.52 in10.0 miSouth (180°)17.3 mph25.3 mph0.02 inOvercast
5:33 AM77.0 °F75.2 °F94 %29.54 in10.0 miSouth (170°)12.7 mph25.3 mph0.00 inRainLight Rain
5:43 AM77.0 °F75.2 °F94 %29.54 in10.0 miSouth (170°)15.0 mph21.9 mph0.00 inMostly Cloudy
5:54 AM78.1 °F75.9 °F93 %29.52 in9.0 miSouth (180°)15.0 mph23.0 mph0.00 inOvercast
6:03 AM77.0 °F75.2 °F94 %29.55 in10.0 miSouth (180°)11.5 mph20.7 mphOvercast
6:42 AM77.0 °F75.2 °F94 %29.57 in4.0 miSouth (180°)9.2 mph21.9 mph0.03 inRainLight Rain
6:54 AM77.0 °F75.9 °F96 %29.56 in5.0 miSouth (170°)11.5 mph18.4 mph0.05 inRainLight Rain
7:07 AM77.0 °F75.2 °F94 %29.58 in10.0 miSouth (170°)11.5 mph21.9 mph0.00 inOvercast
7:15 AM78.8 °F75.2 °F89 %29.58 in8.0 miSouth (170°)13.8 mph24.2 mph0.01 inRainLight Rain
7:25 AM78.8 °F75.2 °F89 %29.59 in4.0 miSouth (180°)17.3 mph26.5 mph0.01 inRainRain
7:31 AM78.8 °F77.0 °F94 %29.59 in2.0 miSouth (180°)13.8 mph24.2 mph0.03 inRainHeavy Rain
7:54 AM78.1 °F77.0 °F96 %29.59 in10.0 miSouth (170°)16.1 mph28.8 mph0.07 inOvercast
8:10 AM77.0 °F75.2 °F94 %29.61 in7.0 miSouth (170°)15.0 mph23.0 mph0.00 inRainLight Rain
8:17 AM77.0 °F75.2 °F94 %29.61 in4.0 miSSE (160°)9.2 mph21.9 mph0.01 inRainLight Rain
8:37 AM78.8 °F77.0 °F94 %29.61 in10.0 miSouth (170°)19.6 mph29.9 mph0.02 inOvercast
8:54 AM79.0 °F77.0 °F94 %29.61 in10.0 miSouth (180°)16.1 mph28.8 mph0.02 inOvercast
9:08 AM78.8 °F75.2 °F89 %29.63 in10.0 miSouth (180°)18.4 mph29.9 mphOvercast
9:18 AM78.8 °F75.2 °F89 %29.63 in9.0 miSouth (180°)13.8 mph24.2 mph0.00 inRainLight Rain
9:36 AM77.0 °F75.2 °F94 %29.63 in7.0 miSouth (170°)17.3 mph27.6 mph0.00 inRainRain
9:54 AM78.1 °F75.9 °F93 %29.63 in5.0 miSouth (180°)17.3 mph26.5 mphRainRain
10:01 AM77.0 °F75.2 °F94 %29.65 in4.0 miSSW (200°)17.3 mph34.5 mph0.00 inRainRain
10:09 AM75.2 °F73.4 °F94 %29.65 in4.0 miSouth (190°)15.0 mph27.6 mph0.03 inRainRain
10:18 AM75.2 °F75.2 °F100 %29.65 in5.0 miSouth (190°)12.7 mph25.3 mph0.04 inRainRain
10:54 AM75.9 °F75.0 °F97 %29.63 in5.0 miSouth (180°)12.7 mph0.12 inRainRain
11:20 AM78.8 °F75.2 °F89 %29.64 in6.0 miSouth (170°)15.0 mph21.9 mph0.03 inRainLight Rain
11:47 AM77.0 °F75.2 °F94 %29.65 in1.5 miSouth (190°)16.1 mph31.1 mph0.05 inRainHeavy Rain
11:54 AM77.0 °F75.9 °F96 %29.63 in2.0 miSouth (190°)13.8 mph25.3 mph0.09 inRainLight Rain
11:59 AM77.0 °F75.2 °F94 %29.65 in6.0 miSouth (190°)16.1 mph25.3 mph0.00 inRainLight Rain
12:54 PM78.1 °F75.9 °F93 %29.60 in6.0 miSouth (170°)16.1 mph26.5 mph0.06 inRainLight Rain
1:15 PM77.0 °F75.2 °F94 %29.63 in4.0 miSouth (180°)19.6 mph28.8 mph0.04 inRainLight Rain
1:19 PM77.0 °F75.2 °F94 %29.63 in5.0 miSouth (170°)17.3 mph28.8 mph0.04 inRainRain
1:28 PM77.0 °F75.2 °F94 %29.63 in7.0 miSouth (180°)13.8 mph26.5 mph0.05 inRainLight Rain
1:38 PM78.8 °F75.2 °F89 %29.63 in7.0 miSouth (180°)12.7 mph20.7 mph0.07 inRainLight Rain
1:52 PM78.8 °F75.2 °F89 %29.64 in1.0 miSW (220°)13.8 mph19.6 mph0.08 inRainHeavy Rain
1:53 PM78.1 °F75.9 °F93 %29.62 in1.0 miSW (230°)10.4 mph19.6 mph0.08 inRainHeavy Rain
2:11 PM75.2 °F75.2 °F100 %29.63 in3.0 miSouth (180°)9.2 mph17.3 mph0.16 inRainLight Rain
2:18 PM75.2 °F73.4 °F94 %29.65 in2.0 miSSW (210°)12.7 mph0.16 inRainHeavy Rain
2:21 PM75.2 °F73.4 °F94 %29.65 in1.2 miSW (230°)11.5 mph20.7 mph0.19 inRainHeavy Rain
2:31 PM75.2 °F73.4 °F94 %29.64 in2.0 miSSW (210°)10.4 mph18.4 mph0.31 inRainHeavy Rain
2:41 PM75.2 °F73.4 °F94 %29.63 in6.0 miSouth (190°)5.8 mph0.33 inRainLight Rain
2:54 PM75.0 °F73.9 °F96 %29.61 in10.0 miSSE (160°)9.2 mph0.34 inRainLight Rain
3:54 PM77.0 °F75.0 °F94 %29.60 in10.0 miSouth (180°)10.4 mph18.4 mphMostly Cloudy
4:54 PM78.1 °F75.9 °F93 %29.62 in10.0 miSouth (170°)9.2 mph16.1 mph0.00 inMostly Cloudy
5:20 PM78.8 °F75.2 °F89 %29.63 in9.0 miSouth (170°)13.8 mph19.6 mph0.00 inRainLight Rain
5:54 PM78.1 °F75.0 °F90 %29.63 in10.0 miWSW (240°)15.0 mph19.6 mph0.00 inRainLight Rain
6:42 PM77.0 °F75.2 °F94 %29.65 in10.0 miSSW (200°)5.8 mph0.03 inOvercast
6:54 PM77.0 °F75.0 °F94 %29.66 in2.0 miWSW (240°)20.7 mph32.2 mph0.03 inRainHeavy Rain
7:00 PM75.2 °F73.4 °F94 %29.69 in0.8 miSSW (210°)16.1 mph33.4 mph0.14 inRainHeavy Rain
7:06 PM73.4 °F73.4 °F100 %29.68 in1.5 miSSW (200°)11.5 mph25.3 mph0.35 inRainHeavy Rain
7:10 PM73.4 °F71.6 °F94 %29.67 in2.0 miSouth (190°)5.8 mph24.2 mph0.39 inRainHeavy Rain
7:16 PM73.4 °F71.6 °F94 %29.68 in5.0 miSouth (180°)10.4 mph17.3 mph0.40 inRainLight Rain
7:51 PM75.2 °F73.4 °F94 %29.68 in10.0 miSSE (160°)11.5 mph0.42 inRainLight Rain
7:54 PM75.0 °F73.9 °F96 %29.66 in7.0 miSouth (170°)11.5 mph0.42 inRainLight Rain
8:13 PM75.2 °F75.2 °F100 %29.69 in7.0 miSouth (170°)10.4 mph0.01 inRainRain
8:40 PM77.0 °F75.2 °F94 %29.70 in9.0 miSSE (160°)13.8 mph24.2 mph0.06 inRainLight Rain
8:54 PM77.0 °F75.9 °F96 %29.68 in10.0 miSSE (160°)13.8 mph25.3 mph0.07 inRainLight Rain
8:58 PM77.0 °F75.2 °F94 %29.70 in10.0 miSSE (160°)16.1 mph25.3 mph0.00 inRainLight Rain
9:12 PM78.8 °F75.2 °F89 %29.70 in10.0 miSouth (170°)15.0 mph19.6 mph0.00 inRainLight Rain
9:30 PM78.8 °F75.2 °F89 %29.70 in9.0 miSSE (160°)16.1 mph24.2 mph0.00 inRainLight Rain
9:47 PM78.8 °F75.2 °F89 %29.70 in9.0 miSSE (150°)13.8 mph21.9 mph0.01 inOvercast
9:54 PM78.1 °F75.9 °F93 %29.68 in10.0 miSSE (150°)19.6 mph27.6 mph0.01 inRainLight Rain
10:23 PM78.8 °F75.2 °F89 %29.70 in10.0 miSSE (160°)13.8 mph26.5 mph0.00 inMostly Cloudy
10:47 PM78.8 °F75.2 °F89 %29.69 in10.0 miSSE (160°)15.0 mph27.6 mph0.00 inRainLight Rain
10:54 PM79.0 °F75.0 °F88 %29.67 in10.0 miSSE (160°)16.1 mph24.2 mph0.00 inRainLight Rain
11:54 PM80.1 °F75.9 °F87 %29.65 in10.0 miSSE (160°)18.4 mph29.9 mph0.00 inOvercast
Hourly data recorded from PGUM, located miles away from Asatdas, Guam







STORIES FROM OUR PARTNERS